Home > Weather > Kodiak > Past weeks

Flag for USA Past Weather in Kodiak, Alaska, USA — Yesterday and Last 2 Weeks

Now
67 °F

Partly sunny.


Feels Like: 67 °F
Forecast: 56 / 65 °F
Wind: 18 mph from West

Location: Kodiak Weather Reporting Station

Current Time: Jul 23, 2016 at 1:20:49 PM

Latest Report: Jul 23, 2016 at 12:53 PM


Visibility: 10 mi

Pressure: 29.69 "Hg

Humidity: 51%

Dew Point: 48 °F

Location of KodiakLocation

Past Weather in Kodiak — Graph

°F

Kodiak Temperature Yesterday

Maximum temperature yesterday: 61 °F (at 9:53 AM)
Minimum temperature yesterday: 57 °F (at 4:53 PM)
Average temperature yesterday: 59 °F

High & Low Weather Summary for the Past Weeks

 TemperatureHumidityPressure
High79 °F (Jul 20, 2:53 PM)100% (Jul 9, 3:00 PM)30.42 "Hg (Jul 9, 3:00 PM)
Low49 °F (Jul 15, 5:53 AM)35% (Jul 11, 3:53 PM)29.59 "Hg (Jul 22, 8:53 PM)
Average62 °F73%30.05 "Hg
* Reported Jul 8 11:53 AM — Jul 23 11:53 AM, Kodiak, Weather by CustomWeather, © 2016

Note: Actual official high and low records may vary slightly from our data, if they occured in-between our weather recording intervals... More about our weather records

Advertising

Kodiak Weather History for the Previous 24 Hours

Scroll right to see more
 ConditionsComfort  
Time TempWeatherWind HumidityBarometerVisibility
11:53 AM
Sat, Jul 23
67 °FPartly sunny.21 mph51%29.68 "Hg10 mi
10:53 AM65 °FScattered clouds.20 mph54%29.67 "Hg10 mi
9:53 AM63 °FPassing clouds.20 mph56%29.67 "Hg10 mi
8:53 AM61 °FScattered clouds.21 mph58%29.66 "Hg10 mi
7:53 AM60 °FScattered clouds.18 mph62%29.65 "Hg10 mi
6:53 AM59 °FScattered clouds.24 mph62%29.65 "Hg10 mi
5:53 AM58 °FPassing clouds.22 mph67%29.64 "Hg10 mi
4:53 AM59 °FPassing clouds.21 mph64%29.63 "Hg10 mi
3:53 AM58 °FPassing clouds.18 mph70%29.62 "Hg10 mi
2:53 AM59 °FPassing clouds.23 mph67%29.62 "Hg10 mi
1:53 AM60 °FPassing clouds.18 mph65%29.61 "Hg10 mi
12:53 AM59 °FClear.20 mph69%29.61 "Hg10 mi
11:53 PM
Fri, Jul 22
59 °FPassing clouds.18 mph78%29.61 "Hg10 mi
10:53 PM59 °FOvercast.16 mph78%29.61 "Hg10 mi
9:53 PM61 °FPartly sunny.10 mph72%29.59 "Hg10 mi
8:53 PM60 °FScattered clouds.14 mph83%29.59 "Hg10 mi
7:53 PM59 °FLight rain. Mostly cloudy.13 mph87%29.60 "Hg10 mi
6:53 PM59 °FLight rain. Cloudy.10 mph90%29.61 "Hg10 mi
5:53 PM59 °FMore clouds than sun.12 mph87%29.61 "Hg10 mi
4:53 PM57 °FMostly cloudy.3 mph93%29.64 "Hg10 mi
3:53 PM59 °FLight rain. Overcast.3 mph87%29.65 "Hg7 mi
3:00 PM59 °FMostly cloudy.3 mph87%29.66 "Hg10 mi
2:53 PM59 °FMostly cloudy.3 mph87%29.67 "Hg10 mi
1:53 PM59 °FMostly cloudy.6 mph90%29.67 "Hg10 mi
Weather by CustomWeather, © 2016

See weather overviewHow to use our weather pages